Location: Newark
(34.9500°N, 139.9667°E)
Time: 13:56:39
(UTC+00:00)

Altair - Pass Details

Date: 17 December 2019
Orbit: 1502 x 1682 km, 47.2° (Epoch: 28 January)

Event Time Altitude Azimuth Distance (km) Brightness Sun altitude
Rises 12:10:35 0° 278° (W) 4,794 10.6 -56.4°
Reaches altitude 10° 12:14:03 10° 286° (WNW) 3,783 9.9 -57.1°
Enters shadow 12:16:39 19° 296° (WNW) 3,087 9.3 -57.6°
